2023/10/27 00:00:00, 0.5,10.3
2023/10/27 00:10:00, 0.6,10.4
2023/10/27 00:20:00, 0.6,10.3
2023/10/27 00:30:00, 0.5,10.4
2023/10/27 00:40:00, 0.5,10.5
2023/10/27 00:50:00, 0.5,10.5
2023/10/27 01:00:00, 0.5,10.6
2023/10/27 01:10:00, 0.4,10.7
2023/10/27 01:20:00, 0.5,10.5
2023/10/27 01:30:00, 0.6,10.8
2023/10/27 01:40:00, 0.5,11.2
2023/10/27 01:50:00, 0.4,10.7
2023/10/27 02:00:00, 0.4,10.4
2023/10/27 02:10:00, 0.4,10.6
2023/10/27 02:20:00, 0.4,10.7
2023/10/27 02:30:00, 0.4,10.4
2023/10/27 02:40:00, 0.4,10.4
2023/10/27 02:50:00, 0.5,10.5
2023/10/27 03:00:00, 0.5,10.6
2023/10/27 03:10:00, 0.5,10.5
2023/10/27 03:20:00, 0.5,10.4
2023/10/27 03:30:00, 0.5,10.5
2023/10/27 03:40:00, 0.5,10.4
2023/10/27 03:50:00, 0.6,10.4
2023/10/27 04:00:00, 0.6,10.4
2023/10/27 04:10:00, 0.5,10.4
2023/10/27 04:20:00, 0.5,10.6
2023/10/27 04:30:00, 0.5,10.6
2023/10/27 04:40:00, 0.5,10.4
2023/10/27 04:50:00, 0.5,10.1
2023/10/27 05:00:00, 0.5,10.5
2023/10/27 05:10:00, 0.6,10.4
2023/10/27 05:20:00, 0.6,10.7
2023/10/27 05:30:00, 0.5,10.7
2023/10/27 05:40:00, 0.6,10.8
2023/10/27 05:50:00, 0.6,10.8
2023/10/27 06:00:00, 0.6,11.2
2023/10/27 06:10:00, 0.5,10.8
2023/10/27 06:20:00, 0.6,11.0
2023/10/27 06:30:00, 0.5,11.1
2023/10/27 06:40:00, 0.6,11.3
2023/10/27 06:50:00, 0.5,11.6
2023/10/27 07:00:00, 0.5,11.9
2023/10/27 07:10:00, 0.4,12.2
2023/10/27 07:20:00, 0.3,12.8
2023/10/27 07:30:00, 0.1,14.2
2023/10/27 07:40:00, 0.6,14.5
2023/10/27 07:50:00, 0.0,15.0
2023/10/27 08:00:00, 0.0,15.9
2023/10/27 08:10:00, 0.0,17.4
2023/10/27 08:20:00, 0.0,18.6
2023/10/27 08:30:00, 0.0,18.5
2023/10/27 08:40:00, 0.0,19.6
2023/10/27 08:50:00, 0.0,20.0
2023/10/27 09:00:00, 0.1,19.4
2023/10/27 09:10:00, 0.2,17.9
2023/10/27 09:20:00, 0.1,17.2
2023/10/27 09:30:00, 0.2,16.8
2023/10/27 09:40:00, 0.2,17.3
2023/10/27 09:50:00, 0.1,17.3
2023/10/27 10:00:00, 0.1,16.9
2023/10/27 10:10:00, 0.3,16.4
2023/10/27 10:20:00, 0.3,15.9
2023/10/27 10:30:00, 0.3,15.5
2023/10/27 10:40:00, 0.4,15.4
2023/10/27 10:50:00, 0.3,15.5
2023/10/27 11:00:00, 0.3,15.2
2023/10/27 11:10:00, 0.2,15.5
2023/10/27 11:20:00, 0.3,15.4
2023/10/27 11:30:00, 0.4,15.4
2023/10/27 11:40:00, 0.3,15.7
2023/10/27 11:50:00, 0.2,15.7
2023/10/27 12:00:00, 0.2,15.3
2023/10/27 12:10:00, 0.1,16.4
2023/10/27 12:20:00, 0.2,15.7
2023/10/27 12:30:00, 0.2,15.2
2023/10/27 12:40:00, 0.3,15.1
2023/10/27 12:50:00, 0.3,15.3
2023/10/27 13:00:00, 0.4,14.9
2023/10/27 13:10:00, 0.6,14.5
2023/10/27 13:20:00, 0.4,14.0
2023/10/27 13:30:00, 0.5,14.3
2023/10/27 13:40:00, 0.5,14.8
2023/10/27 13:50:00, 0.3,14.6
2023/10/27 14:00:00, 0.2,14.3
2023/10/27 14:10:00, 0.2,14.2
2023/10/27 14:20:00, 0.3,14.3
2023/10/27 14:30:00, 0.3,14.1
2023/10/27 14:40:00, 0.4,14.1
2023/10/27 14:50:00, 0.3,14.5
2023/10/27 15:00:00, 0.3,14.4
2023/10/27 15:10:00, 0.3,14.8
2023/10/27 15:20:00, 0.3,14.9
2023/10/27 15:30:00, 0.3,14.9
2023/10/27 15:40:00, 0.2,15.1
2023/10/27 15:50:00, 0.2,15.0
2023/10/27 16:00:00, 0.3,14.1
2023/10/27 16:10:00, 0.3,13.4
2023/10/27 16:20:00, 0.3,13.2
2023/10/27 16:30:00, 0.4,12.7
2023/10/27 16:40:00, 0.4,12.3
2023/10/27 16:50:00, 0.4,12.2
2023/10/27 17:00:00, 0.4,11.9
2023/10/27 17:10:00, 0.4,11.8
2023/10/27 17:20:00, 0.4,11.2
2023/10/27 17:30:00, 0.4,11.0
2023/10/27 17:40:00, 0.4,10.5
2023/10/27 17:50:00, 0.5,10.4
2023/10/27 18:00:00, 0.5,10.3
2023/10/27 18:10:00, 0.6,10.5
2023/10/27 18:20:00, 0.6,10.4
2023/10/27 18:30:00, 0.7,10.6
2023/10/27 18:40:00, 0.7,11.2
2023/10/27 18:50:00, 0.7,11.4
2023/10/27 19:00:00, 0.6,11.4
2023/10/27 19:10:00, 0.9,11.5
2023/10/27 19:20:00, 1.2,11.7
2023/10/27 19:30:00, 1.3,11.4
2023/10/27 19:40:00,41.7,11.6
2023/10/27 19:50:00,82.3,11.4
2023/10/27 20:00:00,82.3,11.7
2023/10/27 20:10:00,25.5,11.1
2023/10/27 20:20:00,49.7,10.7
2023/10/27 20:30:00,33.8,10.7
2023/10/27 20:40:00,25.4,10.2
2023/10/27 20:50:00, 1.2,10.6
2023/10/27 21:00:00, 1.1,10.1
2023/10/27 21:10:00, 1.2,10.2
2023/10/27 21:20:00, 1.3, 9.9
2023/10/27 21:30:00, 1.4, 9.9
2023/10/27 21:40:00, 1.1, 9.7
2023/10/27 21:50:00, 0.9, 9.5
2023/10/27 22:00:00, 0.9,10.1
2023/10/27 22:10:00, 0.9, 9.8
2023/10/27 22:20:00, 1.2, 9.9
2023/10/27 22:30:00,---,10.1
2023/10/27 22:40:00,83.2,10.3
2023/10/27 22:50:00,83.4,10.2
2023/10/27 23:00:00,83.8,10.1
2023/10/27 23:10:00,84.6,10.4
2023/10/27 23:20:00,84.5,10.0
2023/10/27 23:30:00,84.6,10.5
2023/10/27 23:40:00,85.5,10.5
2023/10/27 23:50:00,86.3,10.5
